Temp
1 1 1 1 1 1 2 2 2 1 1 1 1 2 2 3 1 3 2 2 2 2
0 0 0 0 -0 -0 0 0 0 1 1 1 1 1 1 1 2 1 1 1 1 1
-1 -1 -1 -1 -1 -1 -1 -1 -1 -0 -0 -0 -0 -1 -1 -0 -0 -1 -1 -0 0 0
-2 -2 -2 -2 -3 -2 -2 -2 -1 -1 -1 -2 -3 -3 -3 -3 -3 -3 -3 -1 -1 -1
-3 -3 -3 -3 -3 -3 -3 -2 -3 -3 -3 -3 -4 -4 -5 -5 -4 -5 -3 -3 -3 -2
-4 -4 -4 -4 -4 -4 -4 -4 -4 -4 -4 -4 -4 -5 -5 -5 -6 -5 -5 -4 -4 -4
-5 -5 -5 -5 -5 -5 -5 -5 -5 -5 -5 -5 -5 -5 -5 -6 -7 -6 -6 -5 -5 -5
-6 -6 -6 -6 -6 -6 -6 -6 -6 -6 -6 -6 -6 -6 -6 -8 -8 -7 -8 -6 -6 -6
-8 -8 -8 -8 -8 -8 -8 -8 -7 -7 -7 -7 -7 -8 -9 -8 -8 -8 -8 -7 -7 -8
-9 -9 -9 -9 -9 -8 -8 -8 -8 -8 -8 -8 -8 -9 -8 -9 -9 -8 -8 -8 -8 -8
-9 -9 -9 -9 -9 -9 -9 -9 -8 -9 -9 -9 -9 -9 -9 -8 -8 -8 -8 -8 -9 -9
-10 -10 -10 -9 -9 -9 -9 -9 -9 -9 -9 -9 -9 -9 -9 -9 -9 -9 -9 -9 -9 -9
-10 -10 -10 -10 -10 -10 -10 -10 -10 -10 -9 -9 -9 -9 -9 -9 -9 -9 -9 -9 -9 -9
-11 -10 -10 -10 -10 -10 -10 -10 -10 -10 -10 -10 -10 -10 -10 -10 -10 -9 -9 -9 -9 -10
Height
1435 1439 1443 1446 1449 1453 1456 1458 1461 1465 1469 1473 1476 1480 1484 1485 1489 1488 1491 1491 1493 1495
1435 1437 1440 1443 1445 1448 1452 1455 1459 1462 1466 1470 1474 1476 1479 1482 1484 1487 1488 1490 1491 1492
1434 1436 1437 1439 1441 1445 1448 1451 1455 1459 1462 1466 1470 1474 1476 1479 1480 1484 1485 1486 1487 1488
1431 1432 1434 1436 1438 1442 1445 1448 1452 1456 1460 1464 1467 1470 1472 1476 1477 1481 1482 1483 1485 1486
1428 1429 1430 1432 1435 1439 1442 1445 1449 1453 1457 1460 1464 1467 1469 1470 1472 1476 1479 1480 1483 1483
1425 1427 1427 1429 1432 1436 1440 1442 1447 1451 1454 1458 1460 1463 1467 1468 1469 1471 1474 1477 1478 1479
1423 1424 1426 1428 1430 1434 1438 1440 1444 1448 1452 1456 1458 1459 1462 1464 1467 1469 1471 1474 1476 1477
1423 1424 1426 1428 1431 1435 1438 1440 1444 1447 1451 1453 1455 1456 1459 1462 1464 1466 1469 1472 1474 1475
1425 1427 1429 1431 1433 1435 1437 1440 1442 1446 1448 1450 1452 1454 1457 1460 1461 1464 1466 1468 1470 1471
1429 1431 1432 1432 1433 1435 1437 1440 1442 1444 1447 1449 1451 1454 1457 1458 1459 1462 1463 1465 1466 1468
1430 1431 1431 1432 1433 1435 1437 1439 1441 1443 1445 1447 1449 1452 1455 1457 1457 1459 1460 1462 1464 1465
1431 1432 1432 1433 1434 1436 1437 1439 1440 1442 1443 1445 1447 1449 1452 1453 1454 1456 1458 1460 1462 1463
1432 1433 1434 1434 1435 1436 1437 1438 1439 1440 1441 1443 1444 1446 1448 1450 1452 1453 1455 1457 1459 1461
1433 1433 1433 1433 1434 1435 1436 1436 1437 1438 1439 1441 1442 1444 1446 1448 1450 1452 1454 1455 1457 1458
Wind_Speed
20 21 21 21 23 25 27 30 30 29 27 25 23 20 18 20 20 20 20 19 18 17
19 19 20 21 20 21 22 25 28 27 26 25 24 25 24 21 19 18 18 17 15 15
15 16 17 17 18 19 20 22 26 27 26 26 24 23 22 21 21 18 14 14 15 15
13 13 14 15 16 18 19 21 24 26 25 25 24 25 23 22 20 21 20 18 16 15
10 11 11 13 15 16 17 19 23 26 25 25 24 23 24 24 18 16 16 15 15 14
7 8 8 10 12 13 16 18 23 25 25 25 26 27 24 22 22 19 16 16 14 12
3 4 6 9 11 13 16 20 25 26 25 25 23 20 19 15 12 13 13 12 13 14
1 3 5 7 9 12 15 18 23 25 22 17 17 17 17 19 19 18 15 14 12 13
5 4 5 7 9 12 16 20 18 17 18 19 17 16 15 16 15 14 16 17 17 15
6 6 7 7 6 8 10 12 14 15 14 13 14 13 12 12 16 16 17 18 15 14
6 5 5 4 4 6 7 8 9 9 10 11 11 12 11 12 13 13 12 12 12 11
5 4 3 3 3 4 5 6 7 8 10 11 11 12 12 14 16 14 12 14 14 12
1 1 2 3 4 5 6 7 8 9 11 11 12 12 13 14 16 14 13 12 11 9
2 3 4 4 5 6 7 7 8 9 10 10 11 11 13 13 14 14 13 10 10 8
Wind_Direction
231 237 241 241 241 238 234 229 226 225 223 227 222 224 230 226 221 223 228 229 230 229
231 237 244 250 246 238 234 230 228 225 222 222 228 222 218 220 229 231 227 229 230 230
232 239 244 244 240 233 231 227 223 220 217 215 211 221 221 221 221 218 220 231 239 241
227 233 239 241 233 229 230 227 220 215 211 211 213 214 219 219 223 237 240 234 229 231
228 234 235 228 221 222 224 222 216 209 205 206 207 210 209 221 227 216 218 230 236 231
238 231 221 208 210 217 217 212 205 204 203 208 218 232 235 223 220 225 224 226 224 226
223 202 203 202 201 206 208 204 198 199 205 226 242 236 226 218 210 208 214 225 226 223
155 207 220 214 208 206 200 195 201 218 223 228 229 222 210 206 213 220 214 220 225 233
110 126 167 186 185 180 187 204 221 221 228 224 218 211 210 227 221 210 214 223 225 231
119 153 166 181 203 209 210 216 221 222 220 221 223 217 214 214 216 223 226 233 239 238
93 108 126 146 169 190 201 208 212 215 219 223 222 209 209 227 244 234 232 225 229 238
81 95 122 146 171 194 206 214 219 223 228 232 232 227 223 218 222 228 219 216 234 235
99 183 210 216 223 228 230 230 232 235 237 239 239 226 216 219 220 213 215 222 227 217
272 248 238 240 245 245 239 234 237 239 238 231 230 219 209 212 228 218 216 214 215 218